Location: Newark
(0.0000°N, 0.0000°E)
Time: 13:07:48
(UTC+00:00)

Envisat - Visible Passes

Search period start: 19 June 2019 00:00
Search period end: 29 June 2019 00:00
Orbit: 764 x 766 km, 98.1° (Epoch: 19 June)

Date Brightness Start Highest point End Pass type
(mag) Time Alt. Az. Time Alt. Az. Time Alt. Az.
19 Jun 3.5 18:24:49 10° SSE 18:29:36 41° ENE 18:34:20 10° N visible
19 Jun 5.9 20:07:00 10° WSW 20:08:18 11° WSW 20:09:37 10° W visible
20 Jun 4.6 19:27:12 10° SSW 19:31:41 32° WSW 19:36:10 10° NW visible
21 Jun 3.0 18:49:57 10° SSE 18:55:02 88° E 19:00:07 10° NNW visible
22 Jun 5.6 19:54:12 10° SW 19:57:07 15° WSW 20:00:02 10° WNW visible
23 Jun 4.1 19:15:41 10° S 19:20:29 43° WSW 19:25:17 10° NNW visible
24 Jun 3.0 18:38:48 10° SSE 18:43:50 65° ENE 18:48:50 10° N visible
25 Jun 5.3 19:42:09 10° SSW 19:45:55 21° WSW 19:49:40 10° NW visible
26 Jun 3.5 19:04:17 10° S 19:09:17 60° WSW 19:14:16 10° NNW visible
27 Jun 3.3 18:27:45 10° SSE 18:32:37 47° ENE 18:37:27 10° N visible
28 Jun 4.8 19:30:24 10° SSW 19:34:43 28° WSW 19:39:02 10° NW visible
